Wetbulb
57.89 57.38 57.25 57.14 56.92 57.02 56.56 56.35 56.29 56.19 56.44 56.30 56.33 56.13 56.11 56.11 56.20 56.20 56.37 56.37 56.31 56.19 56.09 57.09 57.49 57.84 54.43 49.09 49.52 60.80 72.54 68.80 66.25 59.37 54.25 52.91 55.55 57.31 55.33 59.05 60.98 59.89 60.96 64.01 66.00 65.84 65.14
58.41 57.55 57.03 56.84 56.93 56.66 56.34 56.32 56.63 56.95 56.63 56.33 56.23 56.33 56.04 56.00 56.17 56.26 56.26 56.09 55.89 55.72 55.89 56.98 57.44 57.63 50.37 40.34 58.38 64.86 63.46 61.33 55.86 53.22 52.75 55.70 60.31 61.41 57.19 60.66 61.53 63.76 64.35 63.71 65.59 65.15 65.36
58.44 57.80 57.01 56.70 56.20 56.27 56.73 56.80 57.01 56.75 56.47 56.15 55.91 56.49 56.15 55.98 55.90 55.87 55.74 55.31 54.99 55.25 55.70 56.26 57.62 56.37 51.17 48.19 60.71 61.84 58.36 54.21 51.06 51.61 54.60 55.85 61.04 59.62 57.02 54.25 61.57 64.47 60.47 63.67 64.71 63.95 62.92
59.07 57.96 57.51 57.10 57.14 57.04 56.93 56.87 57.02 56.87 56.26 56.05 55.85 55.88 55.71 55.59 55.80 55.66 56.17 55.83 55.66 55.78 56.42 57.05 57.86 53.92 46.21 57.93 56.55 56.25 57.51 53.05 52.45 50.96 53.92 59.26 61.76 58.60 55.22 54.92 57.81 59.56 60.49 55.73 62.41 63.58 63.90
59.44 58.70 57.68 57.44 56.26 56.92 57.27 57.14 56.96 56.37 56.15 55.82 55.90 56.01 55.50 55.61 56.23 56.18 55.71 55.37 55.76 57.17 58.17 59.38 51.23 49.41 47.04 61.65 56.24 56.57 57.15 53.84 50.42 50.78 53.70 57.99 57.09 53.85 51.90 47.84 44.74 55.01 52.30 54.71 59.85 63.15 62.70
58.92 59.09 58.11 57.11 56.98 57.12 57.03 57.09 57.11 56.58 56.15 56.25 55.76 55.50 55.46 56.13 56.25 55.38 54.70 54.78 55.18 56.28 58.01 57.38 55.78 48.13 52.70 54.43 55.37 56.84 56.82 55.57 51.08 51.23 53.72 53.21 51.66 46.15 45.29 43.39 38.73 43.59 51.17 54.30 56.65 60.60 60.61
59.24 58.64 58.12 57.21 56.86 56.91 57.07 57.02 57.02 56.90 56.32 55.98 55.62 55.48 55.03 54.98 55.46 54.42 51.17 51.35 50.38 49.91 51.56 45.93 48.23 52.33 55.27 56.03 58.82 55.98 57.20 53.37 51.90 51.25 47.27 50.39 43.97 41.60 44.60 46.11 47.93 47.61 47.37 54.22 56.78 60.77 58.31
59.93 58.41 58.56 57.65 57.06 57.07 56.90 56.90 56.74 56.68 56.68 56.08 55.77 54.97 54.68 54.12 54.62 53.81 49.76 47.74 52.70 50.02 44.30 53.97 52.62 53.86 55.87 54.45 52.11 54.55 57.64 50.64 49.72 46.65 48.88 45.43 41.68 47.24 49.62 49.53 48.52 47.92 49.60 55.03 57.72 59.64 59.25
60.15 59.09 58.12 57.97 56.98 56.77 56.90 56.88 56.47 56.49 56.43 56.12 55.94 55.97 55.67 54.65 53.68 48.81 48.90 50.84 55.81 52.65 43.02 47.59 52.53 51.94 52.72 52.51 51.25 52.76 54.79 51.90 48.70 46.48 46.31 42.80 46.61 51.02 49.76 48.13 46.32 45.04 44.10 54.26 55.04 55.63 56.68
59.82 59.26 58.04 58.22 56.99 56.37 56.60 56.55 56.35 56.37 56.31 56.21 56.05 55.55 55.25 54.01 48.98 49.62 49.52 53.11 53.24 52.22 37.05 43.44 45.71 52.34 53.28 52.50 50.10 56.33 55.73 52.53 48.79 46.33 46.99 45.61 49.91 49.77 47.88 46.97 45.86 39.79 48.93 56.77 56.46 53.63 50.08
59.37 58.95 58.25 57.93 57.27 56.17 56.24 56.19 56.05 56.07 55.95 55.81 55.85 55.43 54.08 52.96 47.42 47.38 52.59 52.02 54.65 47.51 30.80 49.82 48.24 54.85 49.96 50.21 51.49 51.54 55.77 51.74 47.07 47.47 45.84 44.44 46.48 46.79 46.36 47.12 47.32 45.37 51.47 56.98 56.50 51.25 52.73
58.87 58.86 58.58 58.05 57.92 56.25 55.88 55.97 55.93 55.89 55.67 55.53 55.28 54.56 53.77 50.58 48.52 50.84 53.19 52.67 48.57 37.83 32.79 46.99 48.97 47.55 45.34 46.76 49.40 51.38 51.92 52.19 51.86 47.57 46.54 46.53 50.33 48.23 47.73 50.21 49.51 50.85 54.98 54.72 54.10 48.96 43.24
58.99 58.64 58.36 57.93 57.77 56.24 55.41 55.69 55.89 55.53 55.28 54.72 53.81 52.67 51.53 53.74 48.48 52.61 52.47 48.67 38.33 34.05 47.04 45.00 44.07 46.50 44.63 44.46 46.93 48.09 48.25 45.81 43.10 38.56 39.32 46.50 46.99 48.89 49.52 45.21 47.48 48.42 43.43 38.05 41.61 41.11 40.56
59.01 58.55 58.32 57.65 57.32 56.22 55.39 55.83 55.87 55.46 54.98 54.07 52.16 51.30 50.13 52.90 51.22 52.35 50.67 44.21 35.04 43.21 41.93 47.44 46.25 45.34 41.84 44.55 46.80 47.82 45.91 42.66 45.81 44.48 40.40 39.30 39.60 45.68 49.35 46.62 44.89 44.62 44.23 38.32 36.51 37.06 40.39
59.11 58.54 57.95 57.51 56.99 56.43 55.31 55.93 55.51 54.94 54.45 53.12 51.04 47.40 48.83 52.15 53.31 51.87 46.88 36.76 37.38 41.43 45.79 45.55 44.24 40.35 42.82 45.96 46.30 46.02 44.91 42.65 45.36 45.14 40.98 39.27 40.43 49.15 50.74 50.10 48.45 43.88 42.46 45.66 41.84 41.04 41.58
59.15 58.72 58.14 57.45 57.35 56.69 55.31 55.93 55.42 54.88 54.27 52.42 48.11 48.20 49.00 55.91 56.10 50.00 42.52 38.68 41.38 47.73 46.92 45.82 38.83 40.71 37.89 41.93 43.10 42.77 45.03 48.36 47.20 49.51 45.98 44.71 39.56 44.71 50.11 49.95 50.68 47.32 49.01 42.09 39.79 36.95 37.95
58.92 58.53 57.92 57.73 57.52 56.63 55.47 56.07 55.38 54.49 53.40 51.98 49.95 47.22 52.64 56.75 53.91 46.06 38.75 39.25 46.30 50.12 50.09 44.06 42.05 39.90 40.46 41.66 42.57 41.36 44.07 48.13 50.16 48.82 47.55 43.97 40.61 42.94 46.20 43.78 45.03 46.05 43.60 44.11 42.33 40.81 41.38
58.49 58.07 57.46 57.56 57.23 56.55 55.56 56.05 54.86 53.43 52.14 51.87 48.93 44.25 54.46 53.88 45.44 42.83 40.25 44.98 47.67 45.58 46.47 44.53 46.12 44.72 42.50 43.80 42.49 43.24 43.84 46.81 51.83 49.80 43.80 43.84 39.74 36.63 41.41 47.19 50.50 47.63 44.77 42.54 39.45 40.92 43.21
58.15 57.43 57.45 57.64 57.54 56.58 55.80 55.67 54.52 53.15 52.48 49.06 46.86 47.08 52.73 52.70 41.73 40.18 42.94 46.33 47.94 44.11 44.49 46.55 46.18 45.70 44.22 42.12 40.70 44.74 47.38 51.79 52.09 45.93 41.12 42.65 38.34 35.29 39.52 41.37 44.18 41.83 43.96 41.96 41.97 43.85 40.74
57.78 57.20 57.35 57.36 57.28 56.07 55.74 55.46 54.33 53.34 52.82 49.22 47.74 44.59 45.85 45.11 44.36 43.50 41.47 41.90 40.59 46.85 46.79 47.69 47.13 46.13 44.05 41.17 44.76 44.27 45.19 50.49 51.29 47.55 54.90 50.11 37.91 39.00 35.65 38.00 41.20 40.08 43.62 44.62 40.86 40.91 40.60
57.31 56.75 57.70 58.03 57.58 55.77 56.00 55.57 54.60 53.80 52.56 49.89 48.81 45.20 42.84 39.18 40.41 40.14 41.19 42.99 43.07 42.26 45.68 45.81 45.80 47.88 45.32 40.86 43.21 43.22 46.43 46.34 48.80 52.88 47.19 43.99 36.81 38.66 43.02 44.36 44.35 42.04 42.92 45.04 44.83 44.78 41.50
57.48 56.36 57.32 58.19 57.08 55.61 55.94 55.87 55.16 54.13 52.28 53.12 47.40 46.55 48.83 42.85 43.35 40.38 39.88 37.89 41.45 41.56 42.35 42.46 43.51 47.54 46.48 41.83 42.23 41.25 42.67 41.05 42.92 46.25 43.08 41.81 41.55 38.98 41.80 44.19 45.13 41.72 44.14 47.36 50.23 49.76 50.52
57.23 56.44 56.90 58.28 57.16 55.57 55.72 56.03 55.55 54.05 51.44 50.72 52.93 51.57 50.03 46.54 39.64 38.57 37.74 40.44 43.58 44.86 43.91 46.05 46.56 44.95 43.73 45.36 45.43 43.25 44.28 42.95 43.25 43.47 43.07 40.25 37.67 39.43 36.59 42.56 41.39 36.98 41.28 42.41 47.29 50.68 52.47
56.81 56.69 56.62 58.12 57.52 55.49 55.54 56.28 56.24 55.02 52.79 49.10 52.33 50.47 48.02 44.90 40.87 41.87 45.52 46.31 45.16 44.44 41.51 44.49 45.29 42.56 46.14 47.45 45.46 43.75 42.36 41.85 43.54 42.33 42.31 39.52 37.92 36.36 35.41 39.43 30.51 39.45 44.46 47.29 51.54 53.05 53.76
56.33 56.99 56.84 57.14 57.82 55.69 55.41 56.44 56.46 55.81 54.41 48.25 49.99 49.95 47.48 43.75 44.83 44.44 44.52 44.24 43.93 44.05 42.43 43.62 45.15 45.13 45.03 42.29 38.45 36.34 36.09 38.18 40.29 42.15 39.75 42.06 36.95 34.97 32.36 33.05 40.79 44.47 44.20 43.06 45.29 48.75 55.18
54.78 56.31 56.69 56.30 57.58 55.92 55.11 56.31 56.67 55.99 54.60 49.04 49.24 53.08 50.14 46.19 43.69 48.33 44.85 45.04 41.65 40.17 42.10 43.61 45.75 46.03 44.52 39.31 38.43 32.44 33.93 38.03 38.49 39.90 40.95 39.99 38.75 35.86 32.95 30.42 31.85 42.21 47.37 48.10 50.34 45.58 55.24
54.29 55.18 56.33 56.32 57.28 55.82 54.26 55.30 56.30 56.53 55.02 51.06 49.35 53.62 50.49 46.22 48.09 46.15 45.27 43.97 45.70 43.18 41.52 42.15 42.45 43.52 43.56 38.62 36.43 33.35 34.65 42.35 34.41 35.07 35.31 33.25 34.53 33.53 33.52 32.38 37.76 44.74 47.38 49.81 38.04 39.84 51.83
54.16 54.74 55.71 55.67 56.55 55.90 54.24 54.84 55.95 56.01 56.00 52.14 50.72 54.00 50.24 45.34 47.78 51.93 51.21 47.17 47.16 45.01 41.06 43.37 42.50 44.10 39.72 37.40 38.21 33.84 33.82 36.19 35.30 38.18 36.00 35.58 31.84 31.46 33.56 30.71 29.62 48.55 47.37 43.46 44.44 46.07 52.01
53.94 54.45 55.28 55.29 55.99 56.13 54.27 54.89 55.94 55.79 55.69 54.69 51.20 55.51 56.34 49.76 49.35 53.20 52.97 52.07 51.37 49.76 46.45 43.46 43.92 42.53 41.31 39.52 38.99 39.28 35.97 36.89 34.86 30.18 40.72 36.25 38.87 37.41 38.87 38.07 44.54 46.81 46.47 48.26 47.82 48.15 47.85
MSLP
1020.96 1020.62 1020.28 1019.93 1019.64 1019.33 1018.98 1018.67 1018.30 1017.93 1017.51 1017.14 1016.83 1016.53 1016.29 1016.03 1015.79 1015.58 1015.26 1015.11 1014.90 1014.79 1014.64 1014.49 1014.23 1013.93 1013.61 1012.67 1009.65 1006.71 1006.53 1007.25 1008.13 1008.74 1009.04 1009.41 1009.64 1009.90 1010.00 1009.56 1010.16 1009.91 1009.98 1010.33 1010.73 1010.08 1010.28
1020.95 1020.59 1020.25 1019.86 1019.53 1019.21 1018.84 1018.41 1018.04 1017.66 1017.33 1017.00 1016.62 1016.24 1015.88 1015.57 1015.31 1015.08 1014.88 1014.73 1014.65 1014.56 1014.32 1014.23 1014.05 1013.87 1013.52 1011.19 1006.82 1006.66 1007.08 1007.68 1007.90 1008.46 1008.73 1009.03 1008.84 1009.14 1009.29 1009.00 1009.14 1008.99 1009.93 1010.16 1010.41 1010.30 1010.60
1020.89 1020.52 1020.17 1019.78 1019.41 1019.04 1018.69 1018.30 1017.93 1017.53 1017.07 1016.61 1016.24 1015.93 1015.60 1015.36 1014.99 1014.70 1014.50 1014.43 1014.32 1014.21 1014.03 1014.06 1013.88 1013.67 1012.66 1008.83 1006.59 1006.89 1007.22 1007.55 1007.62 1007.89 1008.33 1008.14 1008.39 1009.03 1008.53 1008.09 1007.50 1008.57 1009.26 1009.49 1010.03 1010.61 1010.74
1020.84 1020.50 1020.09 1019.64 1019.23 1018.86 1018.47 1018.11 1017.75 1017.34 1016.96 1016.52 1016.10 1015.61 1015.21 1014.96 1014.67 1014.39 1014.16 1014.03 1013.87 1013.76 1013.69 1013.70 1013.79 1013.41 1011.01 1007.12 1006.93 1007.22 1007.36 1007.40 1007.53 1007.69 1007.73 1007.82 1008.41 1008.70 1008.81 1007.72 1007.60 1008.32 1008.60 1009.72 1010.17 1010.55 1010.80
1020.75 1020.34 1019.91 1019.47 1019.12 1018.70 1018.33 1017.95 1017.50 1017.06 1016.67 1016.26 1015.90 1015.46 1015.13 1014.84 1014.48 1014.13 1013.76 1013.63 1013.40 1013.23 1013.20 1013.31 1013.67 1012.99 1009.46 1006.34 1006.76 1006.07 1006.61 1006.83 1007.27 1007.52 1007.56 1007.66 1008.15 1008.27 1007.94 1007.94 1008.11 1008.46 1009.00 1009.60 1010.38 1011.09 1010.75
1020.67 1020.23 1019.83 1019.44 1019.01 1018.63 1018.19 1017.73 1017.27 1016.88 1016.48 1016.00 1015.61 1015.18 1014.83 1014.76 1014.56 1014.04 1013.30 1013.00 1012.93 1012.99 1012.88 1013.10 1012.60 1012.30 1008.51 1006.28 1005.30 1005.49 1005.90 1006.27 1007.09 1007.36 1007.78 1007.80 1008.19 1008.22 1008.41 1008.88 1008.96 1008.94 1009.45 1009.97 1010.12 1011.44 1011.48
1020.55 1020.24 1019.80 1019.36 1018.89 1018.45 1017.99 1017.60 1017.20 1016.65 1016.16 1015.81 1015.35 1015.01 1014.55 1013.93 1013.92 1014.07 1013.36 1012.74 1013.22 1012.83 1012.26 1010.54 1009.82 1008.96 1007.01 1005.75 1005.02 1005.29 1005.67 1006.27 1006.89 1007.46 1007.92 1007.69 1008.50 1008.43 1008.46 1008.73 1008.73 1008.98 1009.84 1010.62 1011.33 1011.69 1011.74
1020.48 1020.13 1019.74 1019.32 1018.88 1018.36 1017.82 1017.31 1016.88 1016.37 1015.85 1015.30 1015.02 1014.64 1014.26 1013.99 1013.54 1013.51 1013.81 1012.76 1010.73 1009.97 1009.74 1008.47 1007.98 1007.46 1006.20 1006.01 1005.55 1005.09 1005.35 1006.50 1006.95 1007.46 1007.74 1008.22 1008.22 1007.93 1007.92 1008.06 1008.31 1008.83 1009.56 1010.82 1011.96 1012.78 1012.84
1020.39 1019.95 1019.54 1019.16 1018.79 1018.26 1017.66 1017.08 1016.59 1016.12 1015.62 1015.05 1014.54 1014.27 1014.15 1013.69 1013.34 1013.47 1012.50 1010.85 1008.46 1009.38 1009.57 1006.95 1006.38 1006.13 1005.46 1005.43 1005.38 1004.97 1005.26 1005.97 1006.63 1007.48 1007.82 1008.24 1007.37 1007.39 1007.71 1007.67 1008.02 1008.35 1008.95 1009.87 1010.84 1012.67 1013.59
1020.38 1019.93 1019.51 1019.07 1018.64 1018.09 1017.46 1016.87 1016.29 1015.83 1015.40 1014.96 1014.26 1013.79 1013.37 1013.12 1013.50 1012.35 1011.04 1008.20 1008.56 1009.17 1009.37 1007.12 1005.53 1004.46 1004.31 1004.38 1004.83 1004.49 1004.87 1005.63 1006.29 1007.02 1007.70 1007.66 1006.93 1007.22 1007.34 1007.37 1007.58 1007.90 1007.53 1008.69 1010.26 1011.29 1012.85
1020.36 1019.85 1019.36 1018.82 1018.24 1017.69 1017.24 1016.62 1016.01 1015.48 1015.12 1014.66 1014.12 1013.72 1013.38 1013.62 1012.99 1011.82 1008.67 1008.42 1008.42 1008.68 1008.80 1006.70 1004.99 1003.64 1003.88 1004.51 1004.48 1004.68 1004.56 1005.45 1006.14 1006.62 1007.32 1007.01 1006.57 1006.69 1006.69 1006.48 1006.60 1006.64 1006.78 1007.53 1009.10 1011.05 1012.16
1020.25 1019.64 1019.08 1018.60 1018.10 1017.66 1017.14 1016.55 1015.86 1015.23 1014.62 1014.13 1013.80 1013.45 1013.27 1013.14 1012.92 1009.74 1009.01 1008.75 1008.45 1009.72 1008.90 1006.50 1005.21 1004.90 1004.70 1004.80 1004.77 1004.80 1005.03 1005.37 1005.89 1006.78 1006.93 1006.73 1005.85 1005.99 1005.60 1005.23 1005.32 1005.70 1006.59 1008.04 1009.71 1011.12 1012.26
1020.04 1019.56 1019.02 1018.51 1018.06 1017.53 1017.01 1016.48 1015.72 1014.82 1013.98 1013.44 1013.15 1013.06 1013.10 1011.98 1010.31 1009.03 1008.98 1009.43 1010.31 1010.08 1009.21 1008.16 1007.18 1006.54 1006.29 1005.77 1005.51 1005.65 1005.98 1006.28 1006.89 1007.42 1007.51 1006.63 1005.72 1005.22 1005.01 1005.11 1004.83 1005.32 1006.88 1009.01 1010.62 1011.74 1011.62
1019.92 1019.43 1018.86 1018.36 1017.92 1017.39 1016.84 1016.05 1015.53 1014.81 1013.63 1012.60 1012.13 1012.31 1011.38 1010.47 1009.69 1009.50 1009.74 1010.34 1011.03 1010.85 1010.07 1008.84 1007.98 1007.18 1006.89 1006.41 1006.81 1006.56 1006.73 1007.07 1007.20 1007.69 1007.97 1007.48 1006.09 1004.64 1004.21 1004.31 1004.48 1005.21 1006.40 1008.28 1009.57 1010.91 1011.24
1019.53 1019.14 1018.64 1018.16 1017.71 1017.22 1016.69 1016.07 1015.26 1014.30 1013.18 1012.27 1010.90 1010.85 1010.80 1008.59 1009.09 1009.89 1010.62 1011.58 1011.58 1010.99 1010.18 1009.38 1008.61 1008.25 1007.81 1007.70 1007.57 1007.87 1008.35 1007.96 1007.37 1007.61 1008.17 1007.49 1006.21 1004.52 1003.76 1003.61 1003.88 1005.00 1006.14 1006.95 1008.66 1009.98 1011.26
1019.33 1019.04 1018.68 1018.14 1017.66 1017.12 1016.55 1015.81 1014.82 1013.71 1012.73 1012.12 1011.33 1010.62 1008.84 1006.93 1007.98 1009.25 1010.77 1011.88 1011.39 1010.53 1009.79 1009.17 1009.01 1008.98 1009.39 1009.34 1009.50 1009.47 1009.32 1008.93 1008.33 1007.93 1007.65 1007.14 1007.01 1005.58 1004.21 1003.52 1003.84 1004.32 1005.57 1007.17 1008.69 1010.15 1012.28
1019.19 1018.88 1018.39 1017.88 1017.34 1016.90 1016.36 1015.74 1014.91 1013.66 1012.49 1011.66 1011.36 1010.32 1007.69 1006.42 1007.37 1010.08 1011.49 1011.54 1010.56 1009.55 1009.19 1008.75 1008.53 1009.03 1009.83 1010.19 1010.63 1010.79 1010.73 1009.25 1008.74 1008.04 1007.54 1007.25 1007.48 1006.69 1005.57 1004.70 1004.62 1005.23 1006.01 1007.39 1008.74 1009.93 1012.48
1019.06 1018.71 1018.31 1017.73 1017.23 1016.90 1016.34 1015.78 1014.95 1013.75 1012.63 1011.82 1011.51 1010.32 1007.55 1006.92 1008.46 1010.66 1011.52 1010.97 1010.19 1009.24 1008.30 1008.24 1008.18 1008.78 1009.65 1010.16 1010.87 1010.95 1010.57 1009.86 1008.86 1008.81 1008.71 1008.23 1008.47 1008.40 1007.02 1005.39 1004.58 1005.14 1006.17 1007.27 1009.23 1010.19 1011.62
1018.96 1018.53 1018.05 1017.52 1016.95 1016.57 1016.13 1015.62 1015.06 1014.25 1013.49 1013.33 1012.27 1010.55 1007.72 1007.80 1009.43 1010.57 1010.78 1010.43 1009.84 1009.00 1008.58 1008.39 1008.54 1008.81 1009.28 1010.00 1010.66 1010.83 1010.26 1009.47 1009.11 1009.07 1008.93 1008.68 1009.22 1009.24 1007.85 1006.72 1005.69 1006.11 1006.22 1007.04 1008.46 1009.60 1011.18
1018.87 1018.43 1017.94 1017.40 1016.90 1016.51 1015.94 1015.17 1014.72 1013.91 1013.36 1013.64 1012.58 1011.34 1009.18 1008.49 1009.26 1009.89 1010.29 1010.22 1009.58 1008.75 1008.68 1008.56 1008.76 1008.93 1009.41 1009.78 1010.15 1010.65 1010.56 1009.86 1009.03 1008.85 1008.75 1008.89 1009.93 1010.25 1010.09 1009.00 1008.13 1007.57 1006.76 1006.89 1008.18 1009.77 1011.55
1018.82 1018.38 1017.77 1017.30 1016.97 1016.52 1016.02 1015.11 1014.30 1013.18 1012.38 1012.88 1012.29 1011.76 1010.68 1010.23 1010.27 1010.12 1009.98 1009.99 1009.99 1009.61 1009.42 1009.27 1009.20 1009.31 1009.86 1010.64 1010.92 1010.84 1010.61 1009.87 1009.05 1008.95 1008.91 1009.31 1010.50 1010.43 1009.72 1009.39 1008.68 1007.83 1007.36 1007.34 1008.21 1008.78 1010.29
1018.66 1018.26 1017.78 1017.29 1016.92 1016.51 1016.15 1015.40 1014.55 1013.08 1012.68 1012.28 1012.47 1012.21 1011.18 1010.74 1010.40 1010.42 1010.27 1010.58 1010.38 1010.26 1010.27 1010.52 1010.61 1010.39 1010.29 1010.84 1011.08 1010.94 1010.61 1010.82 1010.46 1009.62 1009.60 1010.16 1010.71 1011.13 1010.54 1009.92 1008.97 1008.36 1007.62 1007.21 1007.91 1009.33 1010.60
1018.55 1018.24 1017.97 1017.37 1016.94 1016.31 1015.96 1015.65 1014.88 1013.60 1012.25 1013.09 1012.51 1011.80 1011.95 1011.43 1011.32 1011.01 1011.05 1010.70 1010.71 1010.53 1010.96 1011.04 1011.08 1010.85 1011.08 1011.19 1011.20 1010.91 1010.93 1010.97 1010.93 1010.45 1010.88 1011.18 1011.80 1012.40 1012.65 1011.26 1009.59 1009.60 1009.23 1008.48 1008.42 1009.42 1010.69
1018.47 1018.10 1017.71 1017.12 1016.89 1016.56 1016.05 1015.58 1015.36 1014.66 1014.23 1014.14 1013.20 1012.77 1012.68 1012.52 1011.83 1011.15 1010.98 1010.80 1011.10 1011.14 1011.36 1011.48 1011.39 1011.57 1011.38 1010.94 1010.85 1010.78 1010.88 1010.99 1010.85 1011.18 1011.13 1011.98 1012.57 1013.01 1013.32 1012.47 1011.50 1010.85 1010.02 1008.98 1009.39 1010.22 1010.69
1018.42 1017.88 1017.59 1017.06 1016.68 1016.41 1016.10 1015.43 1015.32 1014.78 1014.21 1014.05 1013.31 1013.09 1013.36 1013.15 1012.32 1011.38 1011.06 1011.11 1011.30 1011.56 1011.44 1011.61 1011.58 1011.76 1011.81 1012.03 1012.59 1012.66 1012.88 1012.41 1012.03 1011.92 1012.23 1012.46 1013.30 1014.26 1014.39 1013.72 1012.26 1011.14 1011.21 1010.75 1010.74 1012.26 1011.59
1018.21 1017.84 1017.52 1017.18 1016.49 1016.40 1016.21 1015.73 1015.33 1014.82 1014.17 1013.72 1013.33 1012.90 1013.18 1013.29 1012.31 1011.06 1011.10 1011.14 1011.69 1012.00 1012.11 1011.97 1011.65 1011.54 1012.01 1013.25 1014.12 1014.92 1015.26 1014.81 1014.26 1013.40 1012.90 1013.50 1013.86 1014.91 1015.40 1014.89 1013.64 1012.72 1011.91 1011.01 1011.33 1013.50 1013.86
1017.98 1017.62 1017.36 1017.03 1016.66 1016.34 1016.03 1015.90 1015.28 1015.13 1014.46 1014.39 1013.47 1012.75 1013.06 1013.40 1011.94 1011.07 1010.96 1010.98 1011.22 1011.93 1012.65 1012.42 1012.23 1012.26 1012.72 1014.57 1015.73 1016.67 1016.82 1016.07 1015.92 1015.40 1015.18 1015.21 1015.48 1015.98 1015.99 1015.29 1014.13 1013.33 1012.17 1011.38 1013.30 1014.66 1014.49
1017.78 1017.54 1017.36 1016.88 1016.52 1016.21 1016.01 1015.60 1015.25 1014.99 1014.61 1014.46 1013.63 1012.71 1013.14 1013.52 1012.35 1011.21 1010.74 1010.72 1010.97 1011.74 1012.66 1012.77 1013.08 1013.41 1014.16 1015.63 1016.72 1017.48 1017.48 1017.40 1017.15 1016.62 1016.04 1016.19 1016.48 1016.59 1016.36 1015.83 1014.97 1013.42 1012.81 1013.23 1013.72 1014.22 1014.69
1017.36 1017.09 1016.86 1016.77 1016.54 1016.41 1016.03 1015.89 1015.42 1015.02 1014.59 1014.34 1014.04 1012.61 1012.68 1013.34 1012.36 1011.29 1010.62 1010.25 1010.31 1010.77 1011.63 1012.68 1013.49 1013.99 1014.60 1015.82 1016.90 1017.46 1017.98 1017.93 1018.10 1017.63 1016.52 1016.84 1016.68 1016.60 1016.84 1016.61 1015.54 1014.66 1014.23 1014.20 1014.13 1014.15 1015.41
Wind_Speed
15 16 16 16 15 15 15 15 15 15 14 16 16 15 15 15 15 15 15 14 13 13 13 12 10 9 4 1 11 4 6 18 9 6 7 6 6 5 5 7 7 7 7 8 15 12 12
15 16 17 16 15 16 16 15 15 15 15 17 17 16 16 15 15 15 15 14 13 12 12 11 8 6 2 3 6 8 9 10 7 8 7 7 7 8 7 9 8 9 6 12 10 11 12
14 15 16 16 16 15 15 16 16 16 16 16 16 15 16 15 15 14 14 13 12 11 10 8 5 4 2 14 2 6 8 6 5 7 6 13 7 2 5 5 12 13 7 11 15 12 13
13 15 15 15 15 15 16 17 17 17 18 17 17 16 15 15 15 14 12 12 13 10 8 6 4 4 9 6 6 3 5 3 7 6 7 2 2 6 6 7 1 5 5 5 12 12 12
14 13 14 15 16 15 16 16 17 18 17 17 17 16 16 15 15 13 12 13 13 9 7 6 3 2 11 10 7 10 10 6 5 5 6 8 1 6 2 2 5 1 3 4 14 6 11
17 15 14 16 15 15 15 16 16 17 17 16 16 16 14 14 13 12 14 14 6 5 2 7 7 3 6 4 3 6 8 8 4 3 2 3 3 2 4 6 5 3 4 2 9 3 9
18 17 17 16 16 15 15 16 16 16 17 16 16 15 15 12 8 10 9 3 3 1 3 10 8 6 7 4 2 4 6 6 2 4 5 4 4 5 6 6 6 5 4 8 5 2 8
15 18 17 16 15 15 16 16 16 17 17 17 16 15 14 13 7 4 1 2 9 4 9 15 14 9 11 0 4 7 9 6 4 5 2 6 4 7 4 6 7 4 1 7 13 10 5
14 16 17 16 15 15 16 16 16 16 16 17 17 15 13 12 11 1 5 9 7 8 3 9 7 7 6 9 7 8 9 6 5 4 4 6 7 7 6 8 8 7 5 8 12 11 4
14 15 19 17 16 16 16 16 16 16 16 15 16 18 14 19 2 2 6 7 6 7 5 8 3 6 4 9 3 8 8 6 2 9 5 7 7 6 6 8 6 7 8 11 24 11 6
15 16 18 18 16 16 16 16 16 16 15 15 14 14 13 8 5 2 8 7 9 5 5 11 3 3 4 8 4 4 7 3 5 7 7 9 4 7 8 13 8 12 8 13 21 5 10
17 17 16 19 17 17 17 17 17 17 16 15 13 10 11 2 3 11 10 9 5 7 2 8 3 7 3 2 2 1 8 1 2 2 4 8 7 7 10 11 12 12 4 7 6 4 1
16 17 19 19 18 17 18 19 18 18 19 17 14 9 5 3 7 4 4 5 6 3 6 6 4 5 5 5 4 5 5 5 5 3 4 7 9 10 6 6 3 5 8 2 1 2 7
16 15 18 20 19 18 18 18 19 20 21 21 20 15 8 7 3 2 5 6 5 2 5 5 4 9 5 4 3 3 8 4 4 4 1 2 9 6 5 9 8 5 9 7 6 4 2
16 15 17 19 19 18 18 19 19 21 22 21 21 2 2 6 9 3 6 6 4 2 4 4 8 7 8 7 6 6 6 3 4 4 7 3 7 6 1 6 9 3 2 7 6 3 5
16 15 17 19 17 18 18 18 18 21 25 19 3 4 5 6 10 6 7 4 4 5 2 2 2 4 4 8 6 7 8 3 7 7 5 6 4 4 8 3 3 9 4 4 4 5 2
16 15 16 17 15 17 18 18 18 20 25 12 2 3 5 9 6 7 4 5 3 7 6 2 4 3 4 4 4 2 2 5 3 10 9 4 4 9 2 3 7 4 4 5 5 5 7
15 14 16 16 17 18 18 19 18 16 23 4 3 2 4 5 5 4 4 5 3 5 2 3 2 5 4 3 4 2 1 4 8 6 7 4 4 1 5 9 5 6 6 6 6 2 4
14 15 15 16 15 17 17 18 18 13 10 3 2 4 1 7 3 3 3 3 6 2 2 2 4 5 3 4 6 3 1 7 14 5 2 4 4 4 9 9 8 4 2 6 5 2 5
15 16 17 17 16 17 17 17 19 16 5 1 2 4 5 6 2 7 3 3 1 4 3 2 1 5 3 2 4 4 4 4 14 2 5 3 4 5 3 4 1 6 7 4 6 4 5
16 17 17 16 14 16 17 16 18 21 18 5 2 3 4 1 5 4 7 7 6 5 7 9 7 2 6 3 3 1 2 3 9 3 3 3 3 4 4 6 5 3 8 4 3 6 7
13 16 16 14 14 16 18 18 19 23 10 4 3 4 6 4 5 5 6 4 7 3 5 6 7 12 5 5 1 2 3 4 4 5 7 4 2 5 6 12 11 6 14 9 8 8 15
13 16 16 14 14 15 17 17 17 19 14 3 4 4 4 6 3 6 3 3 5 3 6 8 4 4 7 3 3 3 3 2 5 4 5 4 4 3 2 10 8 8 8 7 4 6 23
14 15 16 14 13 15 17 17 16 13 10 1 4 2 4 4 1 5 7 6 6 3 5 4 7 3 6 7 3 2 4 3 3 6 3 3 3 3 1 7 4 7 8 7 10 5 14
14 13 14 14 11 13 15 15 16 15 14 1 3 3 3 1 2 7 8 5 1 4 2 2 1 3 3 4 5 5 7 7 7 5 6 5 4 4 4 3 4 8 8 6 2 6 18
15 14 12 13 11 12 14 15 16 15 16 1 3 1 3 3 4 2 5 5 4 2 3 2 3 1 6 4 4 3 1 1 4 7 7 6 6 6 2 3 5 7 4 7 5 5 5
13 14 12 11 11 10 13 15 14 16 15 3 4 1 4 2 5 3 2 3 4 3 3 2 2 6 5 3 4 3 1 1 2 3 3 4 4 4 1 1 3 4 8 5 6 6 3
12 13 12 11 10 9 11 12 12 14 15 6 5 2 4 1 6 4 6 5 5 4 5 5 6 6 5 5 4 2 3 3 3 3 1 2 2 0 2 1 3 7 4 7 5 2 8
11 11 11 11 10 9 10 11 10 11 14 11 2 3 1 4 6 3 3 2 5 5 6 4 6 3 4 5 2 3 2 2 3 2 5 3 4 5 5 5 5 6 8 6 4 12 6
Wind_Direction
360 357 353 351 348 343 343 341 337 332 329 328 325 323 321 317 316 313 311 310 309 307 308 308 311 315 327 79 251 270 103 162 149 157 185 185 181 174 197 162 133 168 198 295 252 158 140
357 357 354 350 348 344 341 338 331 328 327 327 325 322 319 314 312 309 308 307 305 302 304 305 299 299 253 255 241 149 128 145 161 162 192 182 200 195 271 161 183 172 129 158 188 150 138
354 353 354 354 350 344 339 332 332 332 329 329 327 323 322 319 316 312 310 306 302 298 299 293 290 248 272 239 225 135 143 181 172 174 174 215 218 243 352 313 219 149 152 161 157 153 138
350 352 352 351 345 341 335 334 334 331 333 332 331 329 326 324 320 314 309 301 296 292 283 263 255 251 244 249 236 301 211 202 196 212 215 273 201 262 197 268 321 166 86 157 170 165 161
349 347 349 349 347 337 334 333 332 336 336 334 331 330 329 325 317 310 307 302 294 281 266 182 173 218 268 304 177 217 172 184 186 236 244 261 320 215 272 68 2 320 172 169 147 320 162
353 348 349 348 345 336 332 329 331 338 338 335 334 331 329 326 319 316 309 295 274 311 177 175 259 306 274 259 198 153 189 155 174 165 356 206 169 209 57 81 218 211 182 180 146 134 63
354 348 347 345 340 336 333 332 333 333 339 339 336 331 325 325 322 326 340 49 16 338 241 196 193 241 268 257 176 207 177 140 191 116 174 203 99 226 221 181 219 269 355 94 76 103 65
350 348 341 337 336 335 333 333 333 330 332 340 335 332 324 321 314 325 297 176 222 125 297 227 235 246 266 339 235 231 119 151 155 202 178 16 210 230 234 266 262 273 151 94 93 144 95
338 346 340 335 337 335 332 331 332 330 330 338 335 327 317 314 305 262 189 230 248 55 314 290 194 203 226 146 225 212 133 172 155 189 180 169 232 211 225 265 283 268 200 184 129 108 101
333 333 343 340 337 334 331 329 328 329 330 329 333 327 326 314 260 314 248 251 287 137 42 282 203 267 216 162 191 182 187 144 177 192 207 218 253 231 231 255 209 270 215 148 146 156 173
338 336 341 339 332 331 330 326 326 327 326 325 321 322 323 352 292 274 247 4 326 72 22 333 195 251 101 132 147 241 180 169 208 187 115 242 221 209 219 233 211 240 239 173 170 87 109
339 338 336 336 332 332 331 328 327 326 324 317 311 307 311 150 237 242 339 324 44 48 280 330 7 333 85 302 233 106 173 117 148 233 285 243 252 170 218 246 230 239 124 64 104 118 96
332 337 337 336 334 331 331 330 328 325 319 315 307 289 268 295 235 78 337 29 45 107 357 330 351 355 344 241 260 137 171 193 164 107 291 293 266 251 221 258 324 144 81 47 20 58 223
329 329 333 337 336 332 332 329 330 326 320 318 309 301 228 225 301 355 33 56 78 166 286 300 313 305 226 183 29 333 163 202 225 129 12 272 312 188 222 186 192 160 146 156 147 172 227
323 328 335 338 337 331 335 334 330 327 323 322 315 118 230 244 200 148 74 52 206 256 238 307 329 47 350 33 72 29 29 297 202 138 184 227 268 315 182 229 135 267 138 193 136 164 77
323 331 332 339 337 333 335 331 332 329 322 333 357 339 254 175 147 74 76 199 218 218 268 292 19 69 41 354 49 31 31 355 338 332 243 193 254 285 313 182 37 143 171 48 13 140 48
329 334 332 333 334 331 335 331 334 333 326 335 17 18 271 122 85 57 133 219 257 260 223 234 336 90 39 110 81 61 233 297 312 321 346 34 106 295 342 167 162 37 67 69 109 125 169
332 335 335 331 337 332 340 335 333 337 332 34 354 15 257 46 55 95 142 196 254 243 273 15 57 62 97 98 69 77 237 231 313 307 321 320 125 300 255 296 149 143 156 109 116 264 109
330 338 337 332 336 333 341 337 330 333 8 311 341 273 269 102 117 329 276 297 224 131 290 63 340 79 155 141 102 226 212 292 292 318 301 308 14 18 349 354 3 21 197 131 119 87 185
332 339 339 335 340 335 343 340 331 329 317 199 76 355 323 41 132 133 195 215 278 51 39 40 102 93 306 355 83 192 165 265 284 165 233 95 80 116 171 228 205 335 315 119 121 114 155
336 339 333 331 340 340 340 342 336 337 340 152 78 276 216 330 346 81 81 70 55 24 6 9 11 95 185 115 71 357 34 16 240 278 155 96 78 14 319 326 277 266 325 216 145 171 129
326 337 335 339 341 342 342 345 343 347 9 47 60 31 348 330 351 63 21 24 91 29 57 356 67 46 40 94 135 146 60 66 264 346 2 19 324 42 342 348 354 20 2 131 141 90 90
324 337 337 336 340 344 344 347 349 356 353 53 313 326 103 301 31 79 308 54 52 45 28 75 29 76 41 359 281 253 185 192 237 15 355 73 97 91 230 327 345 31 337 356 60 120 137
328 333 333 334 341 345 341 349 354 1 23 209 253 73 50 313 91 131 93 82 52 31 109 37 64 70 289 325 328 350 2 19 26 40 59 86 73 73 204 28 29 238 328 11 81 92 111
324 326 328 336 342 340 338 346 354 354 5 223 293 73 90 309 275 95 107 117 45 11 75 86 2 194 316 8 37 27 354 11 339 26 52 75 90 58 112 164 279 2 355 348 29 19 140
322 321 323 335 336 338 340 346 351 353 1 13 281 133 102 112 317 218 133 153 171 210 360 358 307 283 63 69 59 95 101 247 341 338 10 54 73 109 76 102 174 193 266 328 95 103 186
315 314 319 328 334 337 338 342 355 351 357 338 279 82 94 86 282 13 118 158 125 103 139 291 278 347 62 56 71 99 315 276 49 18 324 356 11 110 93 187 307 307 314 46 5 224 193
310 311 313 318 325 318 331 336 352 351 355 13 274 310 103 135 279 10 10 66 39 68 128 258 33 350 30 51 91 271 93 248 55 281 308 116 100 335 53 105 277 321 350 117 206 131 131
301 302 304 313 322 315 325 329 347 348 354 353 321 312 81 126 239 273 264 149 129 167 137 22 170 193 182 86 47 99 43 59 149 290 331 31 178 172 146 209 248 335 86 34 78 103 84